This is the latest recevied weather packets stored in our database for station/object W5GGH. If no packets are shown the sender has not sent any weather packets the latest 1 day(s).
| Time | Temp. | Humidity | Pressure | Rain* | Wind** | Luminosity | Snow |
|---|---|---|---|---|---|---|---|
| 1778016214 | 33.89° C | 41% | 1020.4 hPa | 0 mm | 0.89 m/s, 338° | 636 W/m² | - |
| 1778015910 | 34.44° C | 40% | 1020.3 hPa | 0 mm | 1.34 m/s, 5° | 538 W/m² | - |
| 1778015608 | 34.44° C | 44% | 1020.4 hPa | 0 mm | 1.34 m/s, 310° | 645 W/m² | - |
| 1778015304 | 34.44° C | 46% | 1020.4 hPa | 0 mm | 0 m/s | 612 W/m² | - |
| 1778015001 | 34.44° C | 47% | 1020.7 hPa | 0 mm | 0.45 m/s, 50° | 493 W/m² | - |
| 1778014698 | 34.44° C | 42% | 1020.6 hPa | 0 mm | 0.45 m/s, 19° | 648 W/m² | - |
| 1778014396 | 34.44° C | 46% | 1020.9 hPa | 0 mm | 0.45 m/s, 23° | 681 W/m² | - |
| 1778014092 | 34.44° C | 46% | 1020.9 hPa | 0 mm | 0.45 m/s, 23° | 796 W/m² | - |
| 1778013791 | 34.44° C | 45% | 1020.9 hPa | 0 mm | 0.89 m/s, 50° | 801 W/m² | - |
| 1778013488 | 35° C | 43% | 1021 hPa | 0 mm | 1.34 m/s, 317° | 513 W/m² | - |
| 1778013184 | 34.44° C | 44% | 1020.7 hPa | 0 mm | 0.89 m/s, 16° | 801 W/m² | - |
| 1778012880 | 34.44° C | 44% | 1020.9 hPa | 0 mm | 0.45 m/s, 117° | 833 W/m² | - |
| 1778012576 | 33.89° C | 47% | 1021 hPa | 0 mm | 0.45 m/s, 61° | 993 W/m² | - |
| 1778012273 | 33.33° C | 49% | 1021 hPa | 0 mm | 0.89 m/s, 9° | 874 W/m² | - |
| 1778011971 | 33.33° C | 48% | 1021.2 hPa | 0 mm | 1.34 m/s, 14° | 495 W/m² | - |
| 1778011669 | 33.33° C | 48% | 1021.2 hPa | 0 mm | 0 m/s | 1156 W/m² | - |
| 1778011366 | 33.33° C | 47% | 1021.2 hPa | 0 mm | 0 m/s | 1042 W/m² | - |
| 1778011061 | 33.33° C | 46% | 1021.2 hPa | 0 mm | 0 m/s | 461 W/m² | - |
| 1778010759 | 33.33° C | 47% | 1021.3 hPa | 0 mm | 0 m/s | 553 W/m² | - |
| 1778010456 | 33.89° C | 47% | 1021.4 hPa | 0 mm | 1.34 m/s, 345° | 781 W/m² | - |
| 1778010152 | 33.33° C | 49% | 1021.6 hPa | 0 mm | 0.89 m/s, 1° | 654 W/m² | - |
| 1778009848 | 33.33° C | 50% | 1021.5 hPa | 0 mm | 0.45 m/s, 0° | 894 W/m² | - |
| 1778009546 | 32.78° C | 54% | 1021.4 hPa | 0 mm | 0.89 m/s, 49° | 983 W/m² | - |
| 1778009244 | 32.78° C | 53% | 1021.7 hPa | 0 mm | 0 m/s | 827 W/m² | - |
| 1778008941 | 32.78° C | 55% | 1021.5 hPa | 0 mm | 0 m/s | 780 W/m² | - |
* Rain latest hour (hover to see other rain measurements)
** Current wind speed in m/s (hover to see current wind gust speed)